Погода в Санаге

Россия / Республика Бурятия     50°43′57″N   102°48′11″E
темп.,
°C
ветер,
м/с
пор.,
м/с
влажн.,
%
обл.,
%
осадки,
мм/ч
давл.,
гПа
погр.,
м
5 августа, чт
чт523:00+10с11915 0.0 101111
02:00+8сз11945 0.0 101110
05:00+7ссз00955 0.0 101110
08:00+12ссз01785 0.0 1009159
11:00+21сз12485 0.0 1006916
14:00+24сз243512 0.0 10032441
17:00+16в22768 0.2 100464
20:00+16вюв11755 0.3 100317
6 августа, пт
пт623:00+12св119561 0.8 100524
02:00+11всв0097100 4.0 100511
05:00+10с1197100 0.3 100410
08:00+12зюз0094100 1.0 1003140
11:00+16ююв117695 0.8 1001491
14:00+19в1178100 4.4 999258
17:00+18св2487100 1.9 998364
20:00+14в1189100 2.9 99915
7 августа, сб
сб723:00+11юв0197100 2.8 100115
02:00+11зюз119893 3.8 100029
05:00+11вюв1199100 1.5 100021
08:00+11с1399100 3.8 1001137
11:00+11ссз2697100 2.8 1003360
14:00+12ссз2693100 3.3 1005434
17:00+14с148024 0.3 1005572
20:00+13с22795 0.3 100623
8 августа, вс
вс823:00+8ссз11955 0.0 100913
02:00+7сз11965 0.0 101013
05:00+6сз11965 0.0 101011
08:00+10з118527 0.0 1010183
11:00+16ссз236271 0.7 10091288
14:00+17сз145627 1.8 10091387
17:00+17ссв234654 0.9 10091934
20:00+12всв11704 1.1 101112
9 августа, пн
пн923:00+6сз11902 0.0 101511
02:00+5зсз11935 0.0 101511
05:00+4зсз11935 0.0 101610
08:00+9сз11746 0.0 1015154
11:00+17зсз12491 0.2 10121201
14:00+20зсз133340 0.3 10092692
17:00+20всв123353 0.0 10082294
20:00+10ююв129698 1.9 101345